GOMX4-B (43196 NORAD) Tracking and Keplerian Element Data

This shows tracking and keplerian element data for the satellite.

Feedback or suggestion? Click here.




ElementValue
Catalog43196
NameGOMX4-B
Epoch Orbit2976
Epoch Day228.82592386
Epoch Year2018
RAAN356.5347
Inclination97.3532
Eccentricity0.0018002
Argument of Perigee307.7609
Mean Anonmoly52.1999
Mean Motion15.23709903
Decay Rate2.76E-06
L11 43196U 18015E 18228.82592386 .00000276 00000-0 14412-4 0 9993
L22 43196 97.3532 356.5347 0018002 307.7609 52.1999 15.23709903 29768

Live tracking and technical data element details for GOMX4-B (NORAD 43196). GOMX4-B can be tracked NOW for your location showing map with azimuth and elevation plus other details from your city location.

Track the satellite on the map from your city or location and see movement details for azimuth, elevation, latitude, longitude, range, height, and movement on the map or in text.







IsCatalogInMostPopularTable: catalog: 43196, numindb: 73
Update: records affected: 1



GetName: 43196 GOMX4-B

Hit Count: updated at: Fri, 17 Aug 2018 13:19:53 GMT